DW9442 Weather Reports


Display with metric or nautical units.
time (UTC)temp
F
wind
direction
speed
MPH
gust
MPH
rain 1hr
in
rain 24hr
in
rain mn
in
humidity
%
barometer
mb
20260506111509 55 266 0.0 2.0 0.01 0.61 0.35 91 1011.2
20260506110041 54 150 0.0 0.0 0.01 0.61 0.35 91 1011.5
20260506104511 54 150 0.0 1.0 0.00 0.62 0.35 91 1011.7
20260506103043 54 277 0.0 2.0 0.00 0.62 0.35 91 1011.8
20260506101513 54 248 0.0 1.0 0.01 0.62 0.35 91 1011.8
20260506100043 53 205 0.0 1.0 0.03 0.62 0.35 93 1011.8
20260506094526 52 241 1.0 4.0 0.04 0.62 0.35 94 1011.8
20260506093049 53 252 0.0 5.0 0.08 0.62 0.35 94 1011.8
20260506091515 53 221 2.0 8.0 0.09 0.61 0.33 94 1011.7
20260506090047 53 198 2.0 5.0 0.09 0.59 0.31 94 1011.6
20260506084523 52 233 2.0 6.0 0.13 0.57 0.31 94 1011.5
20260506083055 53 179 0.0 2.0 0.17 0.54 0.27 94 1011.5
20260506081525 52 181 0.0 2.0 0.19 0.52 0.24 94 1011.3
20260506073100 52 295 2.0 5.0 0.10 0.38 0.10 94 1011.5
20260506071517 52 335 2.0 4.0 0.05 0.32 0.05 94 1011.7
20260506070108 52 241 1.0 5.0 0.02 0.30 0.02 94 1011.7
20260506061531 52 181 0.0 1.0 0.00 0.28 0.00 95 1011.6
20260506050114 50 135 0.0 1.0 0.00 0.28 0.00 95 1011.5
20260506044536 51 81 0.0 1.0 0.00 0.28 0.00 95 1011.7
20260506043101 50 81 0.0 2.0 0.00 0.28 0.00 95 1011.7
20260506041546 51 156 0.0 1.0 0.00 0.28 0.00 95 1011.9
20260506040014 51 212 0.0 1.0 0.00 0.28 0.00 95 1012.0
20260506034543 51 212 0.0 2.0 0.00 0.28 0.00 95 1012.1
20260506033013 51 182 1.0 2.0 0.00 0.28 0.00 95 1012.1
20260506031555 51 66 0.0 1.0 0.00 0.28 0.00 95 1012.3
20260506030015 51 66 0.0 1.0 0.00 0.28 0.00 95 1012.2
20260506024545 51 66 0.0 1.0 0.00 0.28 0.00 95 1012.4
20260506023015 51 51 2.0 3.0 0.00 0.28 0.00 95 1012.4
20260506021545 51 95 1.0 1.0 0.00 0.28 0.00 95 1012.5
20260506020007 51 137 1.0 2.0 0.00 0.28 0.00 95 1012.7
20260506014539 51 191 0.0 0.0 0.00 0.28 0.00 95 1012.6
20260506013009 51 191 0.0 1.0 0.00 0.28 0.00 95 1012.9
20260506011533 51 102 0.0 1.0 0.00 0.28 0.00 95 1012.7
20260506010003 51 60 0.0 2.0 0.00 0.28 0.00 95 1012.6
20260506004604 51 326 0.0 1.0 0.00 0.28 0.00 95 1012.6
20260506003007 51 207 0.0 0.0 0.00 0.28 0.00 95 1012.6
20260506001537 51 207 0.0 1.0 0.00 0.28 0.00 95 1012.8
20260506000007 51 207 0.0 1.0 0.00 0.28 0.00 95 1012.8
20260505234605 51 207 0.0 1.0 0.00 0.28 0.00 95 1013.0
20260505233011 52 207 0.0 1.0 0.00 0.28 0.00 95 1013.2
20260505231541 52 207 0.0 1.0 0.00 0.28 0.00 95 1013.2
20260505230004 52 259 0.0 2.0 0.00 0.28 0.00 95 1013.2
20260505224536 51 246 0.0 1.0 0.00 0.28 0.00 95 1013.2
20260505223006 52 246 0.0 1.0 0.00 0.28 0.00 95 1013.2
20260505221539 52 246 0.0 0.0 0.00 0.28 0.00 95 1013.3
20260505220141 52 246 0.0 0.0 0.00 0.28 0.00 95 1013.4
20260505214531 52 246 0.0 2.0 0.00 0.28 0.28 95 1013.5
20260505213057 52 143 0.0 1.0 0.00 0.28 0.28 95 1013.4
20260505211534 52 143 0.0 1.0 0.00 0.28 0.28 94 1013.6
20260505210010 52 143 0.0 1.0 0.00 0.28 0.28 94 1013.7
20260505204539 52 143 0.0 0.0 0.00 0.28 0.28 94 1013.8
20260505203009 52 132 0.0 1.0 0.00 0.28 0.28 94 1013.8
20260505201542 52 132 0.0 1.0 0.02 0.28 0.28 94 1013.7
20260505200025 52 266 0.0 1.0 0.02 0.28 0.28 94 1013.7
20260505194603 52 266 0.0 0.0 0.05 0.28 0.28 94 1013.7
20260505193023 52 266 0.0 2.0 0.06 0.28 0.28 94 1013.7
20260505191556 53 245 0.0 1.0 0.07 0.26 0.26 94 1013.7
20260505190031 53 212 0.0 1.0 0.06 0.25 0.25 93 1013.7
20260505184557 53 160 0.0 2.0 0.04 0.23 0.23 93 1013.5
20260505183040 53 208 0.0 2.0 0.03 0.21 0.21 93 1013.3
20260505181557 53 246 0.0 3.0 0.02 0.19 0.19 93 1013.2
20260505180026 53 36 0.0 1.0 0.02 0.19 0.19 93 1013.2
20260505174559 53 36 0.0 0.0 0.02 0.19 0.19 92 1013.1
20260505173037 53 36 0.0 1.0 0.02 0.18 0.18 92 1013.2
20260505171601 53 36 0.0 1.0 0.03 0.17 0.17 92 1013.2
20260505170035 53 36 0.0 0.0 0.03 0.17 0.17 92 1013.2
20260505164509 53 36 0.0 1.0 0.02 0.17 0.17 91 1013.3
20260505163041 53 36 0.0 1.0 0.02 0.16 0.16 91 1013.4
20260505161512 53 75 0.0 1.0 0.00 0.14 0.14 91 1013.5
20260505153052 53 75 0.0 1.0 0.00 0.14 0.14 90 1013.6
20260505151516 54 291 0.0 2.0 0.00 0.14 0.14 90 1013.7
20260505124551 55 243 1.0 4.0 0.02 0.13 0.13 88 1014.3
20260505123030 55 281 2.0 4.0 0.06 0.13 0.13 88 1014.3
20260505121508 55 300 1.0 3.0 0.09 0.13 0.13 87 1014.4
20260505120051 55 251 0.0 2.0 0.10 0.12 0.12 85 1014.5
20260505114636 55 244 0.0 1.0 0.10 0.11 0.11 87 1014.5
20260505113030 55 66 1.0 5.0 0.06 0.06 0.06 86 1014.6